Other Surface Observations
Issued by NWS Tucson, AZ

Home | Current Version | Previous Version | Text Only | Print | Product List | Glossary On
Versions: 1 2 3 4 5 6 7 8 9 10 11 12 13 14 15 16 17 18 19 20 21 22 23 24 25 26 27 28 29 30 31 32 33 34 35 36 37 38 39 40 41 42 43 44 45 46 47 48 49 50
000
SXUS55 KTWC 212115
OSOTWC

WEATHER ROUNDUP FOR SOUTHEAST ARIZONA
NATIONAL WEATHER SERVICE TUCSON AZ
215 PM MST SAT APR 21 2018

AZZ504>506-514-212215-
LOCATION       SKY/WX    TMP DP  RH WIND       PRES   REMARKS
TUCSON         PTSUNNY   80  26  13 NW8       30.02F
DAVIS-MONTHAN  PTSUNNY   83  27  13 W6        30.00F
CHILDRENS PARK N/A      N/A N/A  13 NW3               PIMA CO DEQ
ALVERNON/22ND  N/A       77 N/A N/A NW2               PIMA CO DEQ
CHERRY/GLENN   N/A      N/A N/A N/A N/A               PIMA CO DEQ
TANGERINE      N/A       81 N/A N/A NE7               PIMA CO DEQ
CONTL RANCH    N/A       81  26  13 NW6               PIMA CO DEQ
GRANT/1ST      N/A       78  25  14 S10               PIMA CO DEQ
CRAYCROFT/22ND N/A       78  25  14 W6                PIMA CO DEQ
GOLFLINKS/KOLB N/A      N/A N/A N/A N/A               PIMA CO DEQ
AJO/12TH       N/A       78  27  15 SE5               PIMA CO DEQ
FAIRGROUNDS    N/A       77 N/A N/A NW5               PIMA CO DEQ
SAGUARO        N/A       82  26  13 W3G10             *SABINO CYN
SAN CARLOS     N/A       81  29  15 W6G14             *SAN CARLOS
GREEN VALLEY   N/A       77  24  14 N5                PIMA CO DEQ
HORSE CAMP CYN N/A       75  26  16 N9G16             *ARAVAIPA CYN
RINCON MTNS    NOT AVBL
$$

AZZ509>511-212215-
LOCATION       SKY/WX    TMP DP  RH WIND       PRES   REMARKS
SAFFORD        SUNNY     78  23  13 VRB3      30.02F
STRAY HORSE    N/A       61  11  14 N5G16             *
TRAIL CABIN    NOT AVBL
BLACK HILLS    NOT AVBL
DRY LAKE       N/A       65  25  22 W5G13             *NATANES MTNS
NOON CREEK     NOT AVBL
COLUMBINE      N/A       53  17  24 NW3G11            *PINALENO MTNS
GUTHRIE        N/A       62  23  22 SW11G21           *SW OF GUTHRIE
$$

AZZ502-503-513-212215-
LOCATION       SKY/WX    TMP DP  RH WIND       PRES   REMARKS
NOGALES        CLOUDY    79  20  11 N9        30.05F
SELLS          N/A       80  23  12 E10G18            *
SASABE         N/A       77  24  14 N9G17             *ALTAR VLY
HOPKINS        N/A       68  24  19 SE4G11            *SANTA RITA MTNS
CARR CYN       N/A       73  23  15 E4G10             *W OF HEREFORD
$$

AZZ507-508-512-212215-
LOCATION       SKY/WX    TMP DP  RH WIND       PRES   REMARKS
SIERRA VISTA   PTSUNNY   73  17  11 NW5       30.11
DOUGLAS        SUNNY     77  18  11 N7        30.07F
EMPIRE MTNS    NOT AVBL
MULESHOE RANCH N/A       75  26  16 W6G13             *PRESERVE
HEADQUARTERS   NOT AVBL
$$

.............................NOTES.............................
THIS IS AN AUTOMATED COLLECTIVE WITH MINIMAL QUALITY CONTROL.
PIMA CO DEQ SITES HAVE NONSTANDARD WIND SENSOR HEIGHTS.
PIMA CO DEQ SITES DO NOT REPORT WIND GUSTS.
* INDICATES WIND SENSORS LOCATED AT 20 FEET INSTEAD OF 33 FEET.
..............................KEY..............................
SKY/WX - SKY CONDITION/WEATHER
TMP    - TEMPERATURE IN FAHRENHEIT
DP     - DEWPOINT IN FAHRENHEIT
RH     - RELATIVE HUMIDITY IN PERCENT
WIND   - DIRECTION AND SPEED IN MILES PER HOUR (MPH)
VRB    - VARIABLE WIND DIRECTION
PRES   - MEAN SEA LEVEL PRESSURE IN INCHES OF MERCURY
         F - FALLING PRESSURE   R - RISING PRESSURE
         S - STEADY PRESSURE
VSB    - VISIBILITY IN MILES
HX     - HEAT INDEX IN FAHRENHEIT
WCI    - WIND CHILL INDEX IN FAHRENHEIT
N/A    - NOT AVAILABLE
AFB    - AIR FORCE BASE
         DAVIS-MONTHAN IS DAVIS-MONTHAN AIR FORCE BASE
CYN    - CANYON
MTNS   - MOUNTAINS
NCA    - NATIONAL CONSERVATION AREA
NR     - NEAR
VLY    - VALLEY
CONTL  - CONTINENTAL
PIMA CO DEQ - PIMA COUNTY DEPT OF ENVIRONMENTAL QUALITY



USA.gov is the U.S. government's official web portal to all federal, state and local government web resources and services.